Погода в Бандар-Лабуане

Малайзия     5°18′49″N   115°13′26″E
темп.,
°C
ветер,
м/с
пор.,
м/с
влажн.,
%
обл.,
%
осадки,
мм/ч
давл.,
гПа
погр.,
м
25 июня, сб
сб2523:00+28зюз2272100 0.0 1009587
02:00+28ююз117551 1.1 1007419
05:00+27ююв438268 4.8 1007289
08:00+27ююв338188 5.9 1009313
11:00+27юз337875 0.4 1009371
14:00+28зсз3473100 0.4 1007437
17:00+28зсз347496 1.4 1006293
20:00+29ссз11705 1.9 1008475
26 июня, вс
вс2623:00+28всв117412 0.6 1009215
02:00+27юв328026 1.8 1008345
05:00+27ю33825 1.4 1008334
08:00+27ююв32815 1.4 1009395
11:00+27ююз22785 0.0 1009295
14:00+28сз33735 0.0 1007356
17:00+29ссз55745 0.0 1007598
20:00+29с33735 0.1 1009737
27 июня, пн
пн2723:00+29с22733 0.2 1010632
02:00+27в228130 3.9 100983
05:00+27юв228397 3.4 1009191
08:00+27ююв338190 7.4 1010200
11:00+27юз227618 0.4 1010356
14:00+28зсз337120 0.4 1007485
17:00+29сз447178 0.0 1007615
20:00+29зсз227064 0.4 1008590
28 июня, вт
вт2823:00+29юз117125 0.1 1009661
02:00+28ю3378100 0.7 1008541
05:00+27ююз4482100 0.1 1007510
08:00+27ююз4481100 0.3 1009494
11:00+27юз447792 0.1 1009506
14:00+28з557478 0.2 1006530
17:00+29зсз667348 0.6 1005587
20:00+28з457662 2.9 1007458
29 июня, ср
ср2923:00+28юз3374100 1.8 1008512
02:00+28ююз4578100 2.0 1006524
05:00+28ююз5678100 1.8 1006492
08:00+27ююз567898 1.9 1007490
11:00+28юз677476 0.0 1007586
14:00+30з666910 0.0 1005665
17:00+29з8974100 0.3 1004524
20:00+29з6775100 2.8 1006406